ICEYE-X52

导读 | 豆包AI

ICEYE-X52是一颗合成孔径雷达卫星,发射国家暂未明确公布,计划于2025年6月23日发射。该卫星由芬兰ICEYE公司研制,延续了ICEYE系列卫星高分辨率合成孔径雷达成像技术,可不受光照、天气影响对地观测,将在灾害监测、资源勘探、海洋观测等领域提供持续遥感数据服务,进一步扩充ICEYE卫星星座的观测能力。

Basic Information
目录编号:
64572
目录名称:
ICEYE-X52
国际标识:
2025-135AW
轨道中心:
EARTH
卫星名称:
ICEYE-X52
卫星全名:
ICEYE-X52
卫星状态:
在轨 (已飞行309 天)
发射日期:
2025-06-23 UTC
国别 :
(FI)
星等 :
--
Orbit Information
数据来源 国际轨道数据 AOE轨道数据
星历时间 2026-04-28T21:22:05+0800
8小时前
查看轨道信息
2026-04-27T02:00:00+0800
2天前
查看轨道信息
半长轴 6965.556km 6965.527km
偏心率 0.0003193 0.000318
轨道倾角 97.768° 97.767°
近地点辐角 118.722° 124.366°
升交点赤经 233.376° 231.589°
平近点角 241.432° 247.083°
近地点 585.194km 585.174km
远地点 589.644km 589.606km
周期 96.426分钟 96.425分钟
每日圈数 14.93376 14.933853
Detailed Information
使用方式:
暂无
2D Orbit Map
3D Orbit Map
Orbit Altitude Analysis Chart
Orbit Inclination Analysis Chart
Orbit Comprehensive Analysis Chart
View Comprehensive Chart